QPF
0.01 0.03 0.03 0.02 0.01 0.01 0.01 0.01 0.01 0.02 0.03 0.04 0.04 0.03 0.03 0.03 0.02 0.01 0.01 0.01 0.01 0.02 0.02 0.02 0.02 0.02 0.02 0.02 0.02 0.02 0.02 0.02 0.02 0.01 0.01 0.01 0.01 0.01 0.01 0.01 0.01 0.01 0.02
0.01 0.01 0.03 0.04 0.02 0.01 0.01 0.01 0.01 0.02 0.02 0.02 0.03 0.03 0.03 0.03 0.02 0.01 0.01 0.01 0.01 0.01 0.02 0.02 0.02 0.02 0.02 0.03 0.02 0.02 0.02 0.01 0.02 0.01 0.01 0.01 0.01 0.01 0.01 0.01 0.01 0.01 0.01
0.02 0.01 0.01 0.02 0.03 0.02 0.02 0.02 0.02 0.02 0.02 0.02 0.02 0.02 0.03 0.03 0.02 0.02 0.02 0.02 0.01 0.01 0.02 0.02 0.02 0.02 0.02 0.02 0.02 0.02 0.01 0.01 0.01 0.01 0.01 0.01 0.01 0.00 0.00 0.00 0.00 0.00 0.01
0.02 0.02 0.01 0.01 0.02 0.02 0.02 0.02 0.02 0.02 0.02 0.02 0.02 0.02 0.02 0.02 0.02 0.02 0.03 0.03 0.02 0.02 0.02 0.02 0.02 0.02 0.02 0.02 0.02 0.02 0.02 0.01 0.01 0.01 0.01 0.01 0.00 0.00 0.00 0.00 0.00 0.01 0.01
0.03 0.02 0.01 0.01 0.01 0.01 0.01 0.02 0.03 0.03 0.03 0.03 0.03 0.03 0.03 0.02 0.02 0.02 0.01 0.01 0.02 0.02 0.02 0.02 0.02 0.02 0.02 0.02 0.02 0.02 0.02 0.02 0.02 0.01 0.01 0.01 0.00 0.00 0.00 0.00 0.00 0.00 0.01
0.02 0.03 0.03 0.01 0.01 0.01 0.01 0.02 0.03 0.03 0.03 0.03 0.03 0.03 0.03 0.02 0.01 0.01 0.01 0.01 0.01 0.01 0.01 0.02 0.02 0.03 0.03 0.02 0.02 0.02 0.01 0.01 0.01 0.01 0.01 0.00 0.00 0.00 0.00 0.00 0.00 0.00 0.01
0.02 0.02 0.02 0.02 0.01 0.01 0.01 0.02 0.02 0.02 0.03 0.03 0.03 0.02 0.02 0.02 0.02 0.02 0.01 0.01 0.01 0.01 0.02 0.02 0.02 0.02 0.03 0.02 0.02 0.02 0.01 0.01 0.01 0.01 0.01 0.00 0.00 0.00 0.00 0.00 0.00 0.00 0.01
0.01 0.01 0.02 0.02 0.01 0.01 0.01 0.01 0.01 0.02 0.02 0.02 0.02 0.02 0.02 0.02 0.02 0.02 0.02 0.01 0.01 0.01 0.01 0.02 0.02 0.02 0.02 0.03 0.03 0.02 0.02 0.01 0.01 0.01 0.01 0.01 0.00 0.00 0.00 0.00 0.00 0.00 0.00
0.01 0.01 0.02 0.01 0.01 0.01 0.02 0.01 0.01 0.01 0.01 0.01 0.02 0.02 0.03 0.03 0.02 0.02 0.02 0.01 0.01 0.01 0.02 0.02 0.03 0.03 0.03 0.02 0.03 0.03 0.02 0.01 0.02 0.02 0.01 0.01 0.01 0.00 0.01 0.01 0.01 0.01 0.01
0.02 0.02 0.03 0.03 0.02 0.02 0.02 0.02 0.02 0.02 0.01 0.02 0.02 0.01 0.01 0.02 0.02 0.02 0.02 0.01 0.01 0.01 0.02 0.02 0.03 0.03 0.03 0.03 0.03 0.03 0.02 0.01 0.01 0.01 0.01 0.01 0.00 0.00 0.00 0.01 0.01 0.01 0.01
0.03 0.03 0.03 0.02 0.02 0.02 0.02 0.02 0.02 0.02 0.02 0.02 0.02 0.02 0.01 0.02 0.02 0.02 0.02 0.02 0.02 0.01 0.01 0.02 0.02 0.03 0.04 0.04 0.03 0.03 0.02 0.02 0.02 0.02 0.01 0.01 0.00 0.00 0.00 0.00 0.00 0.01 0.02
0.02 0.02 0.02 0.02 0.02 0.01 0.02 0.02 0.03 0.03 0.03 0.02 0.02 0.02 0.02 0.02 0.03 0.03 0.02 0.02 0.02 0.02 0.02 0.02 0.02 0.03 0.03 0.03 0.03 0.02 0.02 0.02 0.02 0.03 0.02 0.01 0.01 0.00 0.00 0.00 0.00 0.01 0.01
0.01 0.01 0.02 0.02 0.02 0.01 0.02 0.02 0.03 0.04 0.04 0.04 0.03 0.03 0.03 0.03 0.03 0.04 0.03 0.03 0.03 0.02 0.02 0.02 0.02 0.02 0.02 0.02 0.03 0.02 0.02 0.02 0.02 0.02 0.02 0.02 0.01 0.01 0.01 0.01 0.00 0.00 0.01
0.01 0.01 0.01 0.01 0.02 0.02 0.01 0.01 0.03 0.04 0.04 0.04 0.04 0.04 0.04 0.03 0.04 0.04 0.04 0.04 0.03 0.02 0.02 0.02 0.02 0.02 0.02 0.02 0.02 0.02 0.02 0.02 0.02 0.01 0.01 0.01 0.01 0.01 0.01 0.01 0.01 0.00 0.01
0.01 0.01 0.01 0.01 0.01 0.02 0.02 0.01 0.02 0.02 0.03 0.04 0.04 0.04 0.04 0.03 0.03 0.03 0.03 0.03 0.02 0.02 0.02 0.02 0.01 0.01 0.01 0.01 0.02 0.02 0.02 0.01 0.01 0.01 0.01 0.01 0.01 0.01 0.01 0.01 0.00 0.00 0.01
0.01 0.01 0.01 0.01 0.01 0.01 0.02 0.02 0.02 0.02 0.03 0.04 0.04 0.04 0.04 0.03 0.02 0.02 0.02 0.02 0.02 0.01 0.01 0.01 0.01 0.01 0.01 0.01 0.02 0.01 0.01 0.01 0.01 0.01 0.01 0.01 0.01 0.01 0.01 0.01 0.01 0.00 0.01
0.01 0.01 0.01 0.01 0.01 0.01 0.01 0.01 0.02 0.03 0.03 0.04 0.04 0.04 0.04 0.03 0.02 0.02 0.02 0.02 0.02 0.01 0.01 0.01 0.01 0.01 0.01 0.01 0.02 0.02 0.02 0.01 0.01 0.01 0.01 0.01 0.01 0.01 0.01 0.01 0.01 0.01 0.01
0.01 0.01 0.01 0.01 0.01 0.01 0.01 0.02 0.02 0.02 0.03 0.03 0.03 0.03 0.03 0.02 0.02 0.02 0.02 0.02 0.02 0.01 0.01 0.01 0.01 0.01 0.01 0.02 0.02 0.02 0.02 0.02 0.02 0.02 0.01 0.01 0.01 0.01 0.01 0.01 0.01 0.01 0.01
0.01 0.01 0.01 0.01 0.01 0.01 0.01 0.02 0.02 0.03 0.03 0.03 0.03 0.03 0.02 0.02 0.01 0.01 0.01 0.01 0.01 0.01 0.01 0.01 0.01 0.01 0.01 0.01 0.02 0.02 0.03 0.02 0.02 0.02 0.02 0.01 0.01 0.01 0.01 0.01 0.01 0.01 0.01
0.01 0.01 0.01 0.01 0.01 0.01 0.01 0.01 0.02 0.03 0.03 0.03 0.03 0.02 0.03 0.02 0.01 0.01 0.01 0.01 0.01 0.01 0.01 0.01 0.01 0.01 0.01 0.01 0.02 0.02 0.03 0.03 0.03 0.02 0.02 0.01 0.01 0.01 0.01 0.01 0.01 0.01 0.01
0.01 0.01 0.01 0.01 0.01 0.01 0.01 0.01 0.01 0.02 0.03 0.03 0.03 0.02 0.02 0.02 0.01 0.01 0.01 0.01 0.01 0.01 0.01 0.02 0.02 0.02 0.02 0.02 0.02 0.02 0.02 0.03 0.03 0.03 0.02 0.02 0.01 0.01 0.01 0.01 0.01 0.01 0.01
0.01 0.01 0.01 0.01 0.01 0.00 0.01 0.01 0.01 0.02 0.02 0.02 0.02 0.02 0.02 0.01 0.01 0.01 0.01 0.02 0.02 0.02 0.02 0.02 0.02 0.02 0.02 0.02 0.03 0.03 0.02 0.02 0.03 0.03 0.02 0.02 0.02 0.01 0.01 0.01 0.01 0.01 0.01
0.01 0.01 0.01 0.01 0.01 0.01 0.01 0.01 0.01 0.02 0.02 0.02 0.01 0.01 0.01 0.01 0.01 0.01 0.02 0.02 0.02 0.02 0.02 0.02 0.02 0.02 0.02 0.02 0.02 0.03 0.03 0.03 0.03 0.03 0.03 0.02 0.02 0.02 0.02 0.01 0.01 0.01 0.01
0.02 0.01 0.01 0.01 0.01 0.01 0.01 0.01 0.01 0.02 0.02 0.02 0.02 0.01 0.01 0.01 0.01 0.01 0.02 0.02 0.02 0.02 0.02 0.02 0.02 0.02 0.02 0.02 0.02 0.02 0.03 0.03 0.04 0.03 0.03 0.02 0.02 0.02 0.01 0.01 0.01 0.01 0.01
0.02 0.02 0.01 0.01 0.01 0.01 0.01 0.01 0.02 0.02 0.02 0.02 0.02 0.02 0.01 0.01 0.01 0.01 0.01 0.02 0.02 0.02 0.02 0.02 0.02 0.02 0.02 0.02 0.02 0.02 0.02 0.03 0.03 0.03 0.03 0.02 0.02 0.02 0.02 0.01 0.01 0.01 0.01
0.02 0.02 0.02 0.01 0.01 0.01 0.01 0.01 0.01 0.02 0.02 0.02 0.02 0.02 0.02 0.01 0.01 0.01 0.01 0.01 0.01 0.02 0.02 0.02 0.02 0.02 0.02 0.02 0.02 0.02 0.02 0.02 0.02 0.03 0.03 0.02 0.02 0.01 0.01 0.01 0.01 0.01 0.01
MSLP
1016.97 1017.12 1017.32 1017.58 1017.88 1018.23 1018.60 1018.99 1019.39 1019.78 1020.15 1020.50 1020.82 1021.11 1021.37 1021.61 1021.84 1022.07 1022.31 1022.55 1022.79 1023.01 1023.20 1023.35 1023.45 1023.50 1023.49 1023.43 1023.32 1023.18 1023.00 1022.79 1022.52 1022.20 1021.81 1021.34 1020.79 1020.18 1019.54 1018.91 1018.34 1017.86 1017.53
1017.25 1017.28 1017.36 1017.50 1017.69 1017.94 1018.24 1018.57 1018.93 1019.30 1019.66 1020.01 1020.33 1020.63 1020.91 1021.17 1021.43 1021.69 1021.96 1022.23 1022.49 1022.74 1022.96 1023.14 1023.27 1023.34 1023.37 1023.36 1023.32 1023.24 1023.14 1023.01 1022.82 1022.57 1022.23 1021.80 1021.27 1020.65 1019.98 1019.29 1018.64 1018.08 1017.65
1017.59 1017.51 1017.48 1017.50 1017.58 1017.73 1017.94 1018.20 1018.50 1018.82 1019.15 1019.48 1019.79 1020.09 1020.38 1020.65 1020.93 1021.21 1021.50 1021.79 1022.08 1022.35 1022.59 1022.79 1022.95 1023.05 1023.12 1023.16 1023.18 1023.17 1023.15 1023.10 1023.00 1022.83 1022.56 1022.18 1021.69 1021.10 1020.43 1019.73 1019.05 1018.43 1017.95
1017.95 1017.78 1017.65 1017.57 1017.55 1017.60 1017.72 1017.90 1018.14 1018.40 1018.69 1018.98 1019.27 1019.54 1019.82 1020.09 1020.37 1020.66 1020.96 1021.27 1021.58 1021.86 1022.12 1022.34 1022.52 1022.66 1022.76 1022.85 1022.92 1022.99 1023.04 1023.07 1023.05 1022.96 1022.77 1022.47 1022.04 1021.51 1020.88 1020.21 1019.53 1018.91 1018.40
1018.28 1018.04 1017.83 1017.67 1017.57 1017.54 1017.59 1017.70 1017.86 1018.06 1018.29 1018.53 1018.78 1019.02 1019.27 1019.52 1019.79 1020.07 1020.37 1020.68 1020.99 1021.29 1021.56 1021.79 1022.00 1022.16 1022.31 1022.44 1022.56 1022.68 1022.80 1022.90 1022.96 1022.95 1022.85 1022.63 1022.29 1021.83 1021.29 1020.68 1020.06 1019.48 1018.98
1018.51 1018.23 1017.97 1017.76 1017.61 1017.52 1017.51 1017.56 1017.66 1017.81 1017.98 1018.16 1018.35 1018.54 1018.74 1018.96 1019.20 1019.46 1019.74 1020.04 1020.34 1020.64 1020.92 1021.17 1021.39 1021.59 1021.76 1021.93 1022.10 1022.27 1022.44 1022.60 1022.72 1022.79 1022.77 1022.64 1022.40 1022.05 1021.60 1021.10 1020.57 1020.06 1019.63
1018.56 1018.27 1018.00 1017.77 1017.60 1017.48 1017.44 1017.45 1017.50 1017.60 1017.71 1017.83 1017.96 1018.10 1018.24 1018.41 1018.60 1018.82 1019.07 1019.35 1019.64 1019.93 1020.21 1020.47 1020.71 1020.93 1021.13 1021.33 1021.53 1021.74 1021.95 1022.16 1022.34 1022.47 1022.53 1022.49 1022.36 1022.12 1021.80 1021.42 1021.01 1020.62 1020.27
1018.39 1018.11 1017.85 1017.63 1017.46 1017.35 1017.29 1017.29 1017.32 1017.37 1017.44 1017.51 1017.58 1017.65 1017.74 1017.84 1017.98 1018.16 1018.37 1018.61 1018.88 1019.16 1019.44 1019.70 1019.95 1020.19 1020.41 1020.63 1020.86 1021.10 1021.35 1021.59 1021.82 1022.01 1022.14 1022.19 1022.17 1022.05 1021.87 1021.62 1021.35 1021.08 1020.84
1017.94 1017.70 1017.47 1017.28 1017.14 1017.05 1017.00 1017.00 1017.02 1017.05 1017.08 1017.11 1017.13 1017.15 1017.18 1017.23 1017.32 1017.45 1017.62 1017.83 1018.08 1018.34 1018.61 1018.87 1019.13 1019.38 1019.62 1019.86 1020.11 1020.38 1020.65 1020.93 1021.19 1021.44 1021.63 1021.78 1021.85 1021.86 1021.80 1021.70 1021.56 1021.42 1021.29
1017.25 1017.03 1016.85 1016.70 1016.60 1016.54 1016.52 1016.52 1016.54 1016.56 1016.57 1016.57 1016.56 1016.54 1016.53 1016.54 1016.59 1016.68 1016.83 1017.01 1017.23 1017.48 1017.74 1018.01 1018.27 1018.53 1018.79 1019.05 1019.32 1019.60 1019.90 1020.21 1020.52 1020.81 1021.07 1021.29 1021.46 1021.57 1021.63 1021.66 1021.65 1021.62 1021.60
1016.34 1016.16 1016.01 1015.90 1015.83 1015.81 1015.81 1015.83 1015.86 1015.87 1015.87 1015.85 1015.82 1015.78 1015.75 1015.75 1015.78 1015.85 1015.98 1016.15 1016.36 1016.60 1016.86 1017.13 1017.40 1017.67 1017.94 1018.22 1018.51 1018.82 1019.15 1019.49 1019.84 1020.18 1020.50 1020.79 1021.03 1021.24 1021.40 1021.52 1021.62 1021.69 1021.76
1015.29 1015.14 1015.02 1014.94 1014.90 1014.89 1014.91 1014.93 1014.96 1014.98 1014.97 1014.95 1014.91 1014.87 1014.84 1014.84 1014.87 1014.96 1015.08 1015.26 1015.47 1015.72 1015.98 1016.26 1016.53 1016.82 1017.11 1017.41 1017.73 1018.07 1018.43 1018.81 1019.20 1019.58 1019.95 1020.30 1020.61 1020.89 1021.13 1021.33 1021.50 1021.65 1021.78
1014.19 1014.05 1013.95 1013.88 1013.85 1013.85 1013.87 1013.89 1013.91 1013.91 1013.91 1013.88 1013.85 1013.83 1013.82 1013.84 1013.90 1014.00 1014.15 1014.35 1014.58 1014.84 1015.12 1015.40 1015.70 1016.00 1016.32 1016.65 1017.00 1017.38 1017.77 1018.19 1018.62 1019.05 1019.46 1019.85 1020.22 1020.54 1020.83 1021.08 1021.31 1021.50 1021.68
1013.13 1012.99 1012.89 1012.82 1012.78 1012.76 1012.76 1012.76 1012.77 1012.76 1012.74 1012.72 1012.70 1012.69 1012.71 1012.76 1012.86 1013.01 1013.19 1013.42 1013.69 1013.97 1014.27 1014.58 1014.90 1015.23 1015.57 1015.93 1016.32 1016.73 1017.17 1017.63 1018.09 1018.56 1019.01 1019.44 1019.83 1020.19 1020.51 1020.79 1021.04 1021.27 1021.47
1012.15 1012.01 1011.89 1011.81 1011.75 1011.71 1011.67 1011.64 1011.61 1011.58 1011.55 1011.52 1011.51 1011.52 1011.57 1011.66 1011.80 1011.99 1012.22 1012.49 1012.79 1013.11 1013.44 1013.78 1014.13 1014.48 1014.86 1015.26 1015.68 1016.13 1016.60 1017.10 1017.60 1018.09 1018.57 1019.02 1019.44 1019.81 1020.14 1020.44 1020.70 1020.94 1021.15
1011.27 1011.11 1010.99 1010.88 1010.80 1010.72 1010.65 1010.59 1010.52 1010.45 1010.40 1010.36 1010.34 1010.37 1010.44 1010.57 1010.74 1010.97 1011.24 1011.55 1011.89 1012.24 1012.61 1012.98 1013.36 1013.75 1014.16 1014.59 1015.05 1015.53 1016.04 1016.56 1017.09 1017.60 1018.10 1018.56 1018.99 1019.37 1019.70 1020.00 1020.27 1020.52 1020.75
1010.43 1010.27 1010.14 1010.02 1009.91 1009.81 1009.71 1009.61 1009.50 1009.41 1009.32 1009.27 1009.24 1009.27 1009.35 1009.50 1009.70 1009.96 1010.27 1010.61 1010.98 1011.37 1011.77 1012.18 1012.59 1013.02 1013.46 1013.92 1014.41 1014.92 1015.45 1015.99 1016.52 1017.05 1017.55 1018.02 1018.45 1018.83 1019.17 1019.47 1019.75 1020.00 1020.25
1009.56 1009.41 1009.28 1009.16 1009.05 1008.94 1008.81 1008.69 1008.56 1008.44 1008.33 1008.25 1008.22 1008.24 1008.32 1008.47 1008.69 1008.96 1009.29 1009.66 1010.06 1010.48 1010.91 1011.35 1011.80 1012.26 1012.73 1013.22 1013.73 1014.26 1014.80 1015.35 1015.89 1016.41 1016.91 1017.38 1017.80 1018.18 1018.53 1018.84 1019.13 1019.40 1019.66
1008.60 1008.47 1008.35 1008.24 1008.14 1008.03 1007.91 1007.79 1007.65 1007.51 1007.39 1007.30 1007.26 1007.27 1007.34 1007.49 1007.70 1007.99 1008.33 1008.71 1009.14 1009.59 1010.05 1010.52 1011.00 1011.49 1011.98 1012.50 1013.02 1013.55 1014.09 1014.63 1015.17 1015.68 1016.17 1016.63 1017.05 1017.43 1017.78 1018.11 1018.42 1018.71 1019.00
1007.48 1007.36 1007.27 1007.20 1007.13 1007.05 1006.95 1006.84 1006.72 1006.59 1006.48 1006.38 1006.33 1006.33 1006.39 1006.53 1006.75 1007.03 1007.37 1007.77 1008.21 1008.68 1009.17 1009.67 1010.18 1010.70 1011.21 1011.74 1012.27 1012.80 1013.33 1013.86 1014.37 1014.87 1015.34 1015.79 1016.21 1016.60 1016.96 1017.31 1017.64 1017.97 1018.28
1006.19 1006.09 1006.03 1006.00 1005.97 1005.94 1005.90 1005.83 1005.74 1005.64 1005.55 1005.46 1005.41 1005.41 1005.47 1005.61 1005.81 1006.09 1006.44 1006.85 1007.30 1007.79 1008.31 1008.83 1009.36 1009.90 1010.43 1010.96 1011.49 1012.01 1012.53 1013.04 1013.53 1014.00 1014.46 1014.90 1015.32 1015.72 1016.10 1016.47 1016.83 1017.19 1017.54
1004.74 1004.67 1004.65 1004.66 1004.69 1004.72 1004.74 1004.73 1004.69 1004.64 1004.58 1004.52 1004.49 1004.50 1004.57 1004.70 1004.91 1005.19 1005.54 1005.96 1006.42 1006.93 1007.46 1008.00 1008.55 1009.11 1009.65 1010.18 1010.70 1011.21 1011.71 1012.19 1012.66 1013.12 1013.56 1013.99 1014.42 1014.83 1015.23 1015.63 1016.02 1016.41 1016.78
1003.22 1003.17 1003.18 1003.24 1003.33 1003.43 1003.51 1003.57 1003.59 1003.60 1003.59 1003.57 1003.57 1003.60 1003.69 1003.83 1004.04 1004.33 1004.69 1005.11 1005.59 1006.10 1006.64 1007.20 1007.76 1008.32 1008.87 1009.40 1009.91 1010.40 1010.88 1011.35 1011.80 1012.24 1012.67 1013.11 1013.54 1013.96 1014.39 1014.82 1015.24 1015.65 1016.04
1001.72 1001.69 1001.73 1001.84 1001.98 1002.13 1002.28 1002.40 1002.49 1002.55 1002.59 1002.63 1002.67 1002.73 1002.84 1003.00 1003.23 1003.53 1003.89 1004.32 1004.80 1005.32 1005.87 1006.43 1007.00 1007.55 1008.10 1008.62 1009.12 1009.60 1010.07 1010.52 1010.96 1011.39 1011.83 1012.27 1012.71 1013.16 1013.61 1014.06 1014.50 1014.93 1015.34
1000.34 1000.32 1000.40 1000.54 1000.72 1000.92 1001.11 1001.29 1001.43 1001.55 1001.64 1001.72 1001.81 1001.91 1002.05 1002.24 1002.49 1002.80 1003.17 1003.60 1004.09 1004.60 1005.15 1005.71 1006.26 1006.81 1007.34 1007.86 1008.35 1008.82 1009.28 1009.72 1010.16 1010.60 1011.05 1011.50 1011.96 1012.43 1012.90 1013.38 1013.84 1014.28 1014.70
999.15 999.15 999.24 999.41 999.62 999.84 1000.07 1000.28 1000.47 1000.63 1000.77 1000.89 1001.02 1001.16 1001.34 1001.55 1001.82 1002.15 1002.53 1002.96 1003.44 1003.95 1004.48 1005.02 1005.57 1006.10 1006.62 1007.12 1007.61 1008.07 1008.53 1008.98 1009.43 1009.88 1010.34 1010.82 1011.30 1011.79 1012.29 1012.78 1013.26 1013.71 1014.13
Thickness
5503 5504 5504 5504 5504 5505 5506 5507 5508 5509 5511 5512 5513 5513 5514 5514 5515 5514 5514 5514 5513 5512 5511 5511 5510 5509 5508 5506 5505 5503 5500 5497 5494 5494 5492 5491 5489 5488 5487 5486 5485 5485 5484
5494 5495 5495 5496 5496 5496 5497 5499 5500 5502 5503 5504 5504 5504 5505 5506 5505 5505 5505 5505 5504 5503 5503 5501 5501 5500 5498 5496 5494 5493 5490 5488 5485 5483 5482 5480 5479 5478 5476 5475 5475 5475 5474
5486 5486 5487 5487 5487 5488 5489 5491 5492 5493 5494 5495 5496 5496 5497 5497 5497 5497 5496 5496 5495 5494 5493 5492 5492 5490 5488 5487 5485 5483 5481 5479 5476 5473 5471 5469 5468 5467 5465 5465 5465 5464 5464
5478 5478 5479 5479 5480 5481 5482 5482 5484 5485 5486 5487 5488 5489 5489 5488 5488 5488 5487 5486 5486 5485 5484 5484 5482 5481 5480 5478 5476 5473 5470 5468 5465 5463 5462 5459 5457 5455 5453 5453 5454 5453 5454
5469 5470 5471 5472 5472 5472 5473 5474 5476 5477 5478 5479 5479 5480 5480 5480 5480 5479 5478 5477 5476 5475 5474 5474 5473 5472 5471 5469 5467 5464 5460 5457 5455 5453 5452 5449 5446 5444 5442 5442 5441 5441 5442
5460 5462 5463 5463 5463 5463 5464 5466 5467 5468 5469 5470 5470 5471 5471 5471 5472 5471 5470 5468 5467 5466 5465 5463 5462 5461 5460 5460 5458 5455 5452 5449 5446 5443 5441 5439 5438 5435 5433 5432 5430 5429 5431
5453 5453 5454 5454 5455 5455 5456 5457 5458 5459 5460 5460 5461 5461 5461 5462 5462 5462 5461 5460 5458 5456 5455 5453 5452 5451 5450 5448 5447 5444 5442 5441 5440 5437 5434 5432 5430 5428 5425 5423 5421 5420 5420
5445 5446 5446 5447 5448 5448 5448 5448 5449 5449 5450 5450 5450 5451 5452 5453 5453 5453 5452 5450 5448 5447 5446 5444 5442 5441 5440 5438 5436 5434 5433 5431 5430 5428 5427 5425 5423 5421 5419 5416 5414 5411 5411
5436 5437 5439 5439 5439 5439 5439 5440 5440 5440 5441 5441 5442 5442 5443 5444 5444 5444 5442 5440 5438 5437 5436 5434 5432 5431 5431 5429 5427 5425 5423 5421 5420 5419 5418 5417 5415 5413 5411 5407 5404 5403 5402
5428 5429 5430 5431 5431 5431 5431 5431 5432 5432 5432 5433 5433 5434 5435 5435 5435 5435 5433 5431 5430 5428 5426 5424 5424 5423 5422 5420 5418 5416 5413 5412 5410 5409 5408 5407 5406 5404 5402 5400 5397 5394 5392
5420 5421 5422 5423 5423 5423 5423 5423 5423 5423 5423 5423 5424 5425 5425 5426 5426 5426 5425 5423 5421 5419 5417 5415 5415 5415 5413 5412 5410 5408 5407 5404 5401 5400 5398 5397 5396 5394 5393 5391 5389 5387 5385
5411 5412 5413 5414 5414 5415 5414 5414 5414 5414 5414 5414 5414 5415 5416 5416 5417 5416 5416 5415 5413 5411 5409 5407 5406 5405 5404 5403 5401 5400 5398 5396 5393 5391 5389 5387 5387 5385 5384 5383 5381 5380 5379
5403 5403 5404 5405 5406 5406 5406 5405 5405 5405 5405 5406 5406 5406 5407 5407 5407 5407 5407 5406 5404 5402 5400 5399 5398 5397 5396 5394 5393 5391 5389 5386 5384 5382 5380 5379 5379 5377 5376 5375 5373 5373 5372
5394 5395 5395 5396 5396 5397 5397 5397 5397 5397 5397 5398 5398 5399 5399 5398 5398 5397 5397 5396 5395 5393 5391 5391 5390 5388 5387 5386 5384 5382 5380 5378 5376 5375 5373 5371 5370 5369 5368 5367 5366 5365 5364
5386 5387 5387 5388 5388 5388 5388 5389 5390 5391 5392 5393 5393 5392 5392 5392 5392 5391 5390 5388 5386 5385 5383 5382 5380 5378 5377 5376 5375 5373 5371 5369 5368 5367 5365 5363 5362 5361 5360 5359 5359 5358 5356
5378 5378 5379 5379 5379 5379 5379 5380 5382 5383 5385 5385 5386 5386 5385 5386 5385 5384 5383 5382 5380 5379 5377 5375 5373 5371 5370 5369 5367 5365 5363 5362 5360 5359 5357 5356 5355 5354 5354 5353 5352 5351 5349
5370 5371 5371 5372 5371 5371 5372 5373 5374 5375 5376 5377 5377 5378 5377 5377 5376 5376 5375 5374 5373 5371 5369 5368 5366 5365 5363 5361 5360 5358 5357 5355 5354 5352 5351 5350 5349 5348 5347 5346 5345 5343 5342
5363 5364 5364 5364 5364 5364 5364 5365 5366 5367 5367 5367 5368 5369 5369 5369 5368 5367 5366 5364 5363 5362 5361 5361 5359 5358 5356 5355 5354 5352 5351 5349 5348 5346 5345 5343 5342 5341 5341 5340 5339 5337 5336
5356 5356 5356 5357 5357 5357 5357 5357 5357 5358 5358 5358 5359 5360 5360 5360 5359 5358 5357 5355 5355 5354 5354 5353 5352 5351 5350 5349 5348 5347 5345 5344 5343 5341 5339 5338 5336 5335 5335 5334 5333 5332 5330
5349 5350 5350 5350 5349 5349 5349 5349 5349 5349 5349 5349 5350 5351 5351 5350 5349 5348 5348 5347 5346 5346 5346 5346 5345 5344 5343 5343 5342 5341 5340 5338 5337 5336 5334 5333 5331 5330 5330 5329 5327 5326 5325
5342 5343 5343 5343 5342 5342 5341 5341 5341 5341 5341 5342 5342 5343 5343 5342 5341 5340 5340 5339 5339 5339 5339 5339 5338 5337 5337 5337 5337 5336 5335 5334 5333 5331 5330 5328 5327 5325 5324 5323 5322 5321 5320
5335 5335 5335 5334 5334 5334 5334 5334 5334 5333 5333 5333 5334 5334 5335 5334 5333 5332 5332 5332 5332 5331 5332 5332 5332 5332 5332 5332 5332 5331 5331 5330 5328 5327 5325 5323 5322 5321 5319 5318 5317 5315 5314
5327 5327 5327 5327 5327 5327 5326 5326 5326 5325 5325 5325 5325 5326 5326 5325 5325 5325 5325 5325 5324 5324 5325 5325 5326 5326 5327 5327 5327 5327 5326 5326 5325 5323 5321 5319 5318 5316 5315 5314 5312 5311 5310
5319 5319 5319 5319 5319 5319 5318 5318 5318 5317 5317 5317 5317 5317 5317 5317 5317 5317 5317 5317 5317 5318 5319 5319 5320 5321 5321 5322 5322 5322 5322 5321 5320 5319 5317 5315 5313 5312 5310 5309 5308 5307 5306
5312 5312 5312 5311 5311 5310 5310 5310 5309 5309 5309 5309 5309 5309 5309 5309 5309 5309 5310 5310 5311 5312 5312 5313 5314 5315 5315 5316 5316 5317 5317 5316 5316 5314 5313 5311 5310 5308 5307 5305 5304 5303 5302
5305 5304 5303 5303 5303 5303 5303 5302 5302 5302 5301 5302 5302 5302 5301 5301 5302 5302 5302 5303 5304 5305 5306 5307 5308 5309 5309 5310 5311 5311 5312 5312 5311 5310 5308 5307 5305 5304 5303 5301 5300 5300 5299